Year,Month,Day,Hour,Minute,Value (Times are PST for temperature in C)
2014,08,28,00,00,18.70
2014,08,28,00,01,18.60
2014,08,28,00,02,18.60
2014,08,28,00,03,18.60
2014,08,28,00,04,18.60
2014,08,28,00,05,18.60
2014,08,28,00,06,18.60
2014,08,28,00,07,18.50
2014,08,28,00,08,18.50
2014,08,28,00,09,18.50
2014,08,28,00,10,18.50
2014,08,28,00,11,18.40
2014,08,28,00,12,18.40
2014,08,28,00,13,18.50
2014,08,28,00,14,18.50
2014,08,28,00,15,18.60
2014,08,28,00,16,18.60
2014,08,28,00,17,18.70
2014,08,28,00,18,18.70
2014,08,28,00,19,18.70
2014,08,28,00,20,18.70
2014,08,28,00,21,18.80
2014,08,28,00,22,18.80
2014,08,28,00,23,18.80
2014,08,28,00,24,18.80
2014,08,28,00,25,18.80
2014,08,28,00,26,18.90
2014,08,28,00,27,18.90
2014,08,28,00,28,19.00
2014,08,28,00,29,19.10
2014,08,28,00,30,19.20
2014,08,28,00,31,19.20
2014,08,28,00,32,19.30
2014,08,28,00,33,19.40
2014,08,28,00,34,19.40
2014,08,28,00,35,19.50
2014,08,28,00,36,19.50
2014,08,28,00,37,19.60
2014,08,28,00,38,19.70
2014,08,28,00,39,19.70
2014,08,28,00,40,19.70
2014,08,28,00,41,19.80
2014,08,28,00,42,19.80
2014,08,28,00,43,19.80
2014,08,28,00,44,19.70
2014,08,28,00,45,19.70
2014,08,28,00,46,19.60
2014,08,28,00,47,19.50
2014,08,28,00,48,19.40
2014,08,28,00,49,19.50
2014,08,28,00,50,19.50
2014,08,28,00,51,19.50
2014,08,28,00,52,19.50
2014,08,28,00,53,19.50
2014,08,28,00,54,19.50
2014,08,28,00,55,19.50
2014,08,28,00,56,19.50
2014,08,28,00,57,19.60
2014,08,28,00,58,19.60
2014,08,28,00,59,19.60
2014,08,28,01,00,19.60
2014,08,28,01,01,19.60
2014,08,28,01,02,19.60
2014,08,28,01,03,19.60
2014,08,28,01,04,19.60
2014,08,28,01,05,19.60
2014,08,28,01,06,19.60
2014,08,28,01,07,19.60
2014,08,28,01,08,19.60
2014,08,28,01,09,19.60
2014,08,28,01,10,19.60
2014,08,28,01,11,19.60
2014,08,28,01,12,19.60
2014,08,28,01,13,19.50
2014,08,28,01,14,19.50
2014,08,28,01,15,19.40
2014,08,28,01,16,19.40
2014,08,28,01,17,19.40
2014,08,28,01,18,19.40
2014,08,28,01,19,19.40
2014,08,28,01,20,19.30
2014,08,28,01,21,19.30
2014,08,28,01,22,19.30
2014,08,28,01,23,19.20
2014,08,28,01,24,19.20
2014,08,28,01,25,19.20
2014,08,28,01,26,19.20
2014,08,28,01,27,19.20
2014,08,28,01,28,19.20
2014,08,28,01,29,19.20
2014,08,28,01,30,19.20
2014,08,28,01,31,19.20
2014,08,28,01,32,19.20
2014,08,28,01,33,19.20
2014,08,28,01,34,19.20
2014,08,28,01,35,19.20
2014,08,28,01,36,19.20
2014,08,28,01,37,19.20
2014,08,28,01,38,19.20
2014,08,28,01,39,19.20
2014,08,28,01,40,19.20
2014,08,28,01,41,19.30
2014,08,28,01,42,19.30
2014,08,28,01,43,19.30
2014,08,28,01,44,19.40
2014,08,28,01,45,19.40
2014,08,28,01,46,19.40
2014,08,28,01,47,19.40
2014,08,28,01,48,19.40
2014,08,28,01,49,19.40
2014,08,28,01,50,19.50
2014,08,28,01,51,19.50
2014,08,28,01,52,19.60
2014,08,28,01,53,19.60
2014,08,28,01,54,19.60
2014,08,28,01,55,19.60
2014,08,28,01,56,19.60
2014,08,28,01,57,19.60
2014,08,28,01,58,19.70
2014,08,28,01,59,19.70
2014,08,28,02,00,19.70
2014,08,28,02,01,19.70
2014,08,28,02,02,19.70
2014,08,28,02,03,19.70
2014,08,28,02,04,19.70
2014,08,28,02,05,19.70
2014,08,28,02,06,19.70
2014,08,28,02,07,19.70
2014,08,28,02,08,19.70
2014,08,28,02,09,19.70
2014,08,28,02,10,19.70
2014,08,28,02,11,19.70
2014,08,28,02,12,19.70
2014,08,28,02,13,19.70
2014,08,28,02,14,19.70
2014,08,28,02,15,19.70
2014,08,28,02,16,19.60
2014,08,28,02,17,19.60
2014,08,28,02,18,19.50
2014,08,28,02,19,19.40
2014,08,28,02,20,19.40
2014,08,28,02,21,19.40
2014,08,28,02,22,19.30
2014,08,28,02,23,19.20
2014,08,28,02,24,19.10
2014,08,28,02,25,19.10
2014,08,28,02,26,19.00
2014,08,28,02,27,19.00
2014,08,28,02,28,19.00
2014,08,28,02,29,18.90
2014,08,28,02,30,18.90
2014,08,28,02,31,19.00
2014,08,28,02,32,19.00
2014,08,28,02,33,19.10
2014,08,28,02,34,19.10
2014,08,28,02,35,19.10
2014,08,28,02,36,19.20
2014,08,28,02,37,19.20
2014,08,28,02,38,19.20
2014,08,28,02,39,19.20
2014,08,28,02,40,19.20
2014,08,28,02,41,19.20
2014,08,28,02,42,19.20
2014,08,28,02,43,19.20
2014,08,28,02,44,19.20
2014,08,28,02,45,19.30
2014,08,28,02,46,19.30
2014,08,28,02,47,19.30
2014,08,28,02,48,19.30
2014,08,28,02,49,19.30
2014,08,28,02,50,19.30
2014,08,28,02,51,19.30
2014,08,28,02,52,19.30
2014,08,28,02,53,19.30
2014,08,28,02,54,19.30
2014,08,28,02,55,19.30
2014,08,28,02,56,19.30
2014,08,28,02,57,19.30
2014,08,28,02,58,19.20
2014,08,28,02,59,19.20
2014,08,28,03,00,19.20
2014,08,28,03,01,19.20
2014,08,28,03,02,19.10
2014,08,28,03,03,19.10
2014,08,28,03,04,19.10
2014,08,28,03,05,19.10
2014,08,28,03,06,19.00
2014,08,28,03,07,19.00
2014,08,28,03,08,19.00
2014,08,28,03,09,19.00
2014,08,28,03,10,19.00
2014,08,28,03,11,19.00
2014,08,28,03,12,19.00
2014,08,28,03,13,19.00
2014,08,28,03,14,19.00
2014,08,28,03,15,18.90
2014,08,28,03,16,18.90
2014,08,28,03,17,18.90
2014,08,28,03,18,18.90
2014,08,28,03,19,18.90
2014,08,28,03,20,19.00
2014,08,28,03,21,19.10
2014,08,28,03,22,19.10
2014,08,28,03,23,19.10
2014,08,28,03,24,19.10
2014,08,28,03,25,19.10
2014,08,28,03,26,19.10
2014,08,28,03,27,19.10
2014,08,28,03,28,19.10
2014,08,28,03,29,19.10
2014,08,28,03,30,19.10
2014,08,28,03,31,19.10
2014,08,28,03,32,19.10
2014,08,28,03,33,19.10
2014,08,28,03,34,19.10
2014,08,28,03,35,19.00
2014,08,28,03,36,19.00
2014,08,28,03,37,19.00
2014,08,28,03,38,18.90
2014,08,28,03,39,18.90
2014,08,28,03,40,18.90
2014,08,28,03,41,18.80
2014,08,28,03,42,18.80
2014,08,28,03,43,18.80
2014,08,28,03,44,18.80
2014,08,28,03,45,18.80
2014,08,28,03,46,18.80
2014,08,28,03,47,18.80
2014,08,28,03,48,18.80
2014,08,28,03,49,18.80
2014,08,28,03,50,18.80
2014,08,28,03,51,18.80
2014,08,28,03,52,18.80
2014,08,28,03,53,18.80
2014,08,28,03,54,18.80
2014,08,28,03,55,18.80
2014,08,28,03,56,18.80
2014,08,28,03,57,18.90
2014,08,28,03,58,18.90
2014,08,28,03,59,18.90
2014,08,28,04,00,18.90
2014,08,28,04,01,19.00
2014,08,28,04,02,19.00
2014,08,28,04,03,19.10
2014,08,28,04,04,19.10
2014,08,28,04,05,19.10
2014,08,28,04,06,19.10
2014,08,28,04,07,19.00
2014,08,28,04,08,19.00
2014,08,28,04,09,19.00
2014,08,28,04,10,19.00
2014,08,28,04,11,19.00
2014,08,28,04,12,19.00
2014,08,28,04,13,19.00
2014,08,28,04,14,19.00
2014,08,28,04,15,19.00
2014,08,28,04,16,18.90
2014,08,28,04,17,18.90
2014,08,28,04,18,18.80
2014,08,28,04,19,18.80
2014,08,28,04,20,18.70
2014,08,28,04,21,18.70
2014,08,28,04,22,18.70
2014,08,28,04,23,18.70
2014,08,28,04,24,18.60
2014,08,28,04,25,18.60
2014,08,28,04,26,18.60
2014,08,28,04,27,18.60
2014,08,28,04,28,18.60
2014,08,28,04,29,18.60
2014,08,28,04,30,18.50
2014,08,28,04,31,18.50
2014,08,28,04,32,18.50
2014,08,28,04,33,18.50
2014,08,28,04,34,18.50
2014,08,28,04,35,18.50
2014,08,28,04,36,18.50
2014,08,28,04,37,18.50
2014,08,28,04,38,18.50
2014,08,28,04,39,18.50
2014,08,28,04,40,18.50
2014,08,28,04,41,18.40
2014,08,28,04,42,18.30
2014,08,28,04,43,18.30
2014,08,28,04,44,18.20
2014,08,28,04,45,18.20
2014,08,28,04,46,18.10
2014,08,28,04,47,18.00
2014,08,28,04,48,18.00
2014,08,28,04,49,17.90
2014,08,28,04,50,17.90
2014,08,28,04,51,17.80
2014,08,28,04,52,17.80
2014,08,28,04,53,17.80
2014,08,28,04,54,17.80
2014,08,28,04,55,17.70
2014,08,28,04,56,17.70
2014,08,28,04,57,17.80
2014,08,28,04,58,17.80
2014,08,28,04,59,17.80
2014,08,28,05,00,17.80
2014,08,28,05,01,17.80
2014,08,28,05,02,17.80
2014,08,28,05,03,17.80
2014,08,28,05,04,17.70
2014,08,28,05,05,17.70
2014,08,28,05,06,17.60
2014,08,28,05,07,17.60
2014,08,28,05,08,17.60
2014,08,28,05,09,17.50
2014,08,28,05,10,17.50
2014,08,28,05,11,17.40
2014,08,28,05,12,17.40
2014,08,28,05,13,17.40
2014,08,28,05,14,17.30
2014,08,28,05,15,17.30
2014,08,28,05,16,17.20
2014,08,28,05,17,17.20
2014,08,28,05,18,17.20
2014,08,28,05,19,17.20
2014,08,28,05,20,17.10
2014,08,28,05,21,17.10
2014,08,28,05,22,17.00
2014,08,28,05,23,17.00
2014,08,28,05,24,17.00
2014,08,28,05,25,16.90
2014,08,28,05,26,16.90
2014,08,28,05,27,16.90
2014,08,28,05,28,17.00
2014,08,28,05,29,16.90
2014,08,28,05,30,16.90
2014,08,28,05,31,16.90
2014,08,28,05,32,17.00
2014,08,28,05,33,17.00
2014,08,28,05,34,17.00
2014,08,28,05,35,17.00
2014,08,28,05,36,17.10
2014,08,28,05,37,17.10
2014,08,28,05,38,17.10
2014,08,28,05,39,17.10
2014,08,28,05,40,17.20
2014,08,28,05,41,17.20
2014,08,28,05,42,17.20
2014,08,28,05,43,17.30
2014,08,28,05,44,17.30
2014,08,28,05,45,17.20
2014,08,28,05,46,17.20
2014,08,28,05,47,17.10
2014,08,28,05,48,17.10
2014,08,28,05,49,17.00
2014,08,28,05,50,16.90
2014,08,28,05,51,16.90
2014,08,28,05,52,16.90
2014,08,28,05,53,17.00
2014,08,28,05,54,17.00
2014,08,28,05,55,17.10
2014,08,28,05,56,17.10
2014,08,28,05,57,17.20
2014,08,28,05,58,17.20
2014,08,28,05,59,17.20
2014,08,28,06,00,17.10
2014,08,28,06,01,17.20
2014,08,28,06,02,17.20
2014,08,28,06,03,17.20
2014,08,28,06,04,17.30
2014,08,28,06,05,17.30
2014,08,28,06,06,17.30
2014,08,28,06,07,17.40
2014,08,28,06,08,17.40
2014,08,28,06,09,17.40
2014,08,28,06,10,17.40
2014,08,28,06,11,17.40
2014,08,28,06,12,17.40
2014,08,28,06,13,17.40
2014,08,28,06,14,17.30
2014,08,28,06,15,17.30
2014,08,28,06,16,17.30
2014,08,28,06,17,17.30
2014,08,28,06,18,17.30
2014,08,28,06,19,17.30
2014,08,28,06,20,17.40
2014,08,28,06,21,17.40
2014,08,28,06,22,17.40
2014,08,28,06,23,17.40
2014,08,28,06,24,17.40
2014,08,28,06,25,17.40
2014,08,28,06,26,17.30
2014,08,28,06,27,17.30
2014,08,28,06,28,17.20
2014,08,28,06,29,17.20
2014,08,28,06,30,17.10
2014,08,28,06,31,17.10
2014,08,28,06,32,17.00
2014,08,28,06,33,17.00
2014,08,28,06,34,17.00
2014,08,28,06,35,16.90
2014,08,28,06,36,16.90
2014,08,28,06,37,16.90
2014,08,28,06,38,16.90
2014,08,28,06,39,16.90
2014,08,28,06,40,16.90
2014,08,28,06,41,16.90
2014,08,28,06,42,16.90
2014,08,28,06,43,16.80
2014,08,28,06,44,16.80
2014,08,28,06,45,16.80
2014,08,28,06,46,16.80
2014,08,28,06,47,16.80
2014,08,28,06,48,16.70
2014,08,28,06,49,16.70
2014,08,28,06,50,16.70
2014,08,28,06,51,16.70
2014,08,28,06,52,16.70
2014,08,28,06,53,16.70
2014,08,28,06,54,16.70
2014,08,28,06,55,16.70
2014,08,28,06,56,16.70
2014,08,28,06,57,16.60
2014,08,28,06,58,16.60
2014,08,28,06,59,16.60
2014,08,28,07,00,16.60
2014,08,28,07,01,16.60
2014,08,28,07,02,16.60
2014,08,28,07,03,16.60
2014,08,28,07,04,16.60
2014,08,28,07,05,16.60
2014,08,28,07,06,16.60
2014,08,28,07,07,16.60
2014,08,28,07,08,16.60
2014,08,28,07,09,16.60
2014,08,28,07,10,16.60
2014,08,28,07,11,16.70
2014,08,28,07,12,16.70
2014,08,28,07,13,16.70
2014,08,28,07,14,16.70
2014,08,28,07,15,16.70
2014,08,28,07,16,16.70
2014,08,28,07,17,16.70
2014,08,28,07,18,16.70
2014,08,28,07,19,16.70
2014,08,28,07,20,16.70
2014,08,28,07,21,16.70
2014,08,28,07,22,16.80
2014,08,28,07,23,16.80
2014,08,28,07,24,16.80
2014,08,28,07,25,16.90
2014,08,28,07,26,16.90
2014,08,28,07,27,16.90
2014,08,28,07,28,17.00
2014,08,28,07,29,17.00
2014,08,28,07,30,17.00
2014,08,28,07,31,17.00
2014,08,28,07,32,17.00
2014,08,28,07,33,17.10
2014,08,28,07,34,17.10
2014,08,28,07,35,17.10
2014,08,28,07,36,17.10
2014,08,28,07,37,17.10
2014,08,28,07,38,17.20
2014,08,28,07,39,17.20
2014,08,28,07,40,17.20
2014,08,28,07,41,17.20
2014,08,28,07,42,17.20
2014,08,28,07,43,17.30
2014,08,28,07,44,17.30
2014,08,28,07,45,17.30
2014,08,28,07,46,17.30
2014,08,28,07,47,17.30
2014,08,28,07,48,17.30
2014,08,28,07,49,17.30
2014,08,28,07,50,17.30
2014,08,28,07,51,17.30
2014,08,28,07,52,17.30
2014,08,28,07,53,17.30
2014,08,28,07,54,17.30
2014,08,28,07,55,17.30
2014,08,28,07,56,17.30
2014,08,28,07,57,17.40
2014,08,28,07,58,17.40
2014,08,28,07,59,17.40
2014,08,28,08,00,17.40
2014,08,28,08,01,17.50
2014,08,28,08,02,17.50
2014,08,28,08,03,17.60
2014,08,28,08,04,17.60
2014,08,28,08,05,17.60
2014,08,28,08,06,17.70
2014,08,28,08,07,17.80
2014,08,28,08,08,17.80
2014,08,28,08,09,17.90
2014,08,28,08,10,17.90
2014,08,28,08,11,18.00
2014,08,28,08,12,18.10
2014,08,28,08,13,18.10
2014,08,28,08,14,18.20
2014,08,28,08,15,18.20
2014,08,28,08,16,18.20
2014,08,28,08,17,18.30
2014,08,28,08,18,18.40
2014,08,28,08,19,18.40
2014,08,28,08,20,18.50
2014,08,28,08,21,18.60
2014,08,28,08,22,18.70
2014,08,28,08,23,18.80
2014,08,28,08,24,18.90
2014,08,28,08,25,18.90
2014,08,28,08,26,19.00
2014,08,28,08,27,19.00
2014,08,28,08,28,19.10
2014,08,28,08,29,19.20
2014,08,28,08,30,19.30
2014,08,28,08,31,19.40
2014,08,28,08,32,19.40
2014,08,28,08,33,19.40
2014,08,28,08,34,19.50
2014,08,28,08,35,19.50
2014,08,28,08,36,19.50
2014,08,28,08,37,19.60
2014,08,28,08,38,19.60
2014,08,28,08,39,19.70
2014,08,28,08,40,19.70
2014,08,28,08,41,19.70
2014,08,28,08,42,19.70
2014,08,28,08,43,19.70
2014,08,28,08,44,19.60
2014,08,28,08,45,19.50
2014,08,28,08,46,19.40
2014,08,28,08,47,19.30
2014,08,28,08,48,19.30
2014,08,28,08,49,19.20
2014,08,28,08,50,19.20
2014,08,28,08,51,19.20
2014,08,28,08,52,19.20
2014,08,28,08,53,19.20
2014,08,28,08,54,19.20
2014,08,28,08,55,19.10
2014,08,28,08,56,19.10
2014,08,28,08,57,19.10
2014,08,28,08,58,19.10
2014,08,28,08,59,19.20
2014,08,28,09,00,19.20
2014,08,28,09,04,19.20
2014,08,28,09,05,19.20
2014,08,28,09,06,19.20
2014,08,28,09,07,19.20
2014,08,28,09,08,19.30
2014,08,28,09,09,19.30
2014,08,28,09,10,19.40
2014,08,28,09,11,19.50
2014,08,28,09,12,19.60
2014,08,28,09,13,19.60
2014,08,28,09,14,19.70
2014,08,28,09,15,19.90
2014,08,28,09,16,20.00
2014,08,28,09,17,20.20
2014,08,28,09,18,20.30
2014,08,28,09,19,20.40
2014,08,28,09,20,20.60
2014,08,28,09,21,20.70
2014,08,28,09,22,20.80
2014,08,28,09,23,20.90
2014,08,28,09,24,21.10
2014,08,28,09,25,21.20
2014,08,28,09,26,21.20
2014,08,28,09,27,21.20
2014,08,28,09,28,21.30
2014,08,28,09,29,21.30
2014,08,28,09,30,21.40
2014,08,28,09,31,21.40
2014,08,28,09,32,21.40
2014,08,28,09,33,21.40
2014,08,28,09,34,21.40
2014,08,28,09,35,21.50
2014,08,28,09,36,21.50
2014,08,28,09,37,21.60
2014,08,28,09,38,21.60
2014,08,28,09,39,21.70
2014,08,28,09,40,21.70
2014,08,28,09,41,21.80
2014,08,28,09,42,21.80
2014,08,28,09,43,21.90
2014,08,28,09,44,21.90
2014,08,28,09,45,22.00
2014,08,28,09,46,22.00
2014,08,28,09,47,22.00
2014,08,28,09,48,22.00
2014,08,28,09,49,22.10
2014,08,28,09,50,22.10
2014,08,28,09,51,22.20
2014,08,28,09,52,22.20
2014,08,28,09,53,22.20
2014,08,28,09,54,22.30
2014,08,28,09,55,22.30
2014,08,28,09,56,22.30
2014,08,28,09,57,22.30
2014,08,28,09,58,22.30
2014,08,28,09,59,22.30
2014,08,28,10,00,22.40
2014,08,28,10,01,22.40
2014,08,28,10,02,22.50
2014,08,28,10,03,22.50
2014,08,28,10,04,22.50
2014,08,28,10,05,22.50
2014,08,28,10,06,22.60
2014,08,28,10,07,22.60
2014,08,28,10,08,22.60
2014,08,28,10,09,22.70
2014,08,28,10,10,22.70
2014,08,28,10,11,22.80
2014,08,28,10,12,22.80
2014,08,28,10,13,22.80
2014,08,28,10,14,22.80
2014,08,28,10,15,22.90
2014,08,28,10,16,22.90
2014,08,28,10,17,22.80
2014,08,28,10,18,22.80
2014,08,28,10,19,22.80
2014,08,28,10,20,22.80
2014,08,28,10,21,22.80
2014,08,28,10,22,22.80
2014,08,28,10,23,22.80
2014,08,28,10,24,22.80
2014,08,28,10,25,22.80
2014,08,28,10,26,22.90
2014,08,28,10,27,22.90
2014,08,28,10,28,23.00
2014,08,28,10,29,23.00
2014,08,28,10,30,23.00
2014,08,28,10,31,23.00
2014,08,28,10,32,22.90
2014,08,28,10,33,22.90
2014,08,28,10,34,22.90
2014,08,28,10,35,22.80
2014,08,28,10,36,22.70
2014,08,28,10,37,22.60
2014,08,28,10,38,22.60
2014,08,28,10,39,22.50
2014,08,28,10,40,22.40
2014,08,28,10,41,22.40
2014,08,28,10,42,22.30
2014,08,28,10,43,22.30
2014,08,28,10,44,22.20
2014,08,28,10,45,22.20
2014,08,28,10,46,22.20
2014,08,28,10,47,22.20
2014,08,28,10,48,22.20
2014,08,28,10,49,22.20
2014,08,28,10,50,22.10
2014,08,28,10,51,22.10
2014,08,28,10,52,22.10
2014,08,28,10,53,22.10
2014,08,28,10,54,22.10
2014,08,28,10,55,22.10
2014,08,28,10,56,22.10
2014,08,28,10,57,22.00
2014,08,28,10,58,21.90
2014,08,28,10,59,21.90
2014,08,28,11,00,21.80
2014,08,28,11,01,21.80
2014,08,28,11,02,21.80
2014,08,28,11,03,21.90
2014,08,28,11,04,21.90
2014,08,28,11,05,22.00
2014,08,28,11,06,22.00
2014,08,28,11,07,22.10
2014,08,28,11,08,22.20
2014,08,28,11,09,22.40
2014,08,28,11,10,22.50
2014,08,28,11,11,22.60
2014,08,28,11,12,22.80
2014,08,28,11,13,22.90
2014,08,28,11,14,22.90
2014,08,28,11,15,22.90
2014,08,28,11,16,22.90
2014,08,28,11,17,22.80
2014,08,28,11,18,22.70
2014,08,28,11,19,22.70
2014,08,28,11,20,22.70
2014,08,28,11,21,22.70
2014,08,28,11,22,22.70
2014,08,28,11,23,22.70
2014,08,28,11,24,22.70
2014,08,28,11,25,22.70
2014,08,28,11,26,22.60
2014,08,28,11,27,22.60
2014,08,28,11,28,22.50
2014,08,28,11,29,22.50
2014,08,28,11,30,22.40
2014,08,28,11,31,22.40
2014,08,28,11,32,22.40
2014,08,28,11,33,22.40
2014,08,28,11,34,22.40
2014,08,28,11,35,22.50
2014,08,28,11,36,22.50
2014,08,28,11,37,22.50
2014,08,28,11,38,22.60
2014,08,28,11,39,22.60
2014,08,28,11,40,22.60
2014,08,28,11,41,22.60
2014,08,28,11,42,22.70
2014,08,28,11,43,22.70
2014,08,28,11,44,22.80
2014,08,28,11,45,22.90
2014,08,28,11,46,23.00
2014,08,28,11,47,23.10
2014,08,28,11,48,23.20
2014,08,28,11,49,23.20
2014,08,28,11,50,23.20
2014,08,28,11,51,23.30
2014,08,28,11,52,23.30
2014,08,28,11,53,23.30
2014,08,28,11,54,23.30
2014,08,28,11,55,23.30
2014,08,28,11,56,23.20
2014,08,28,11,57,23.10
2014,08,28,11,58,23.00
2014,08,28,11,59,22.90
2014,08,28,12,00,22.90
2014,08,28,12,01,23.00
2014,08,28,12,02,23.10
2014,08,28,12,03,23.20
2014,08,28,12,04,23.30
2014,08,28,12,05,23.40
2014,08,28,12,06,23.50
2014,08,28,12,07,23.50
2014,08,28,12,08,23.60
2014,08,28,12,09,23.60
2014,08,28,12,10,23.60
2014,08,28,12,11,23.60
2014,08,28,12,12,23.60
2014,08,28,12,13,23.60
2014,08,28,12,14,23.60
2014,08,28,12,15,23.60
2014,08,28,12,16,23.60
2014,08,28,12,17,23.50
2014,08,28,12,18,23.50
2014,08,28,12,19,23.50
2014,08,28,12,20,23.40
2014,08,28,12,21,23.30
2014,08,28,12,22,23.30
2014,08,28,12,23,23.30
2014,08,28,12,24,23.20
2014,08,28,12,25,23.10
2014,08,28,12,26,22.90
2014,08,28,12,27,22.70
2014,08,28,12,28,22.60
2014,08,28,12,29,22.70
2014,08,28,12,30,22.70
2014,08,28,12,31,22.80
2014,08,28,12,32,22.80
2014,08,28,12,33,22.90
2014,08,28,12,34,23.10
2014,08,28,12,35,23.30
2014,08,28,12,36,23.40
2014,08,28,12,37,23.30
2014,08,28,12,38,23.20
2014,08,28,12,39,23.20
2014,08,28,12,40,23.20
2014,08,28,12,41,23.20
2014,08,28,12,42,23.20
2014,08,28,12,43,23.00
2014,08,28,12,44,22.80
2014,08,28,12,45,22.40
2014,08,28,12,46,22.20
2014,08,28,12,47,22.00
2014,08,28,12,48,21.90
2014,08,28,12,49,21.80
2014,08,28,12,50,21.90
2014,08,28,12,51,21.90
2014,08,28,12,52,22.00
2014,08,28,12,53,22.10
2014,08,28,12,54,22.10
2014,08,28,12,55,21.90
2014,08,28,12,56,21.80
2014,08,28,12,57,21.80
2014,08,28,12,58,21.80
2014,08,28,12,59,21.70
2014,08,28,13,00,21.50
2014,08,28,13,01,21.30
2014,08,28,13,02,21.20
2014,08,28,13,03,21.20
2014,08,28,13,04,21.10
2014,08,28,13,05,21.10
2014,08,28,13,06,21.10
2014,08,28,13,07,21.20
2014,08,28,13,08,21.20
2014,08,28,13,09,21.30
2014,08,28,13,10,21.40
2014,08,28,13,11,21.50
2014,08,28,13,12,21.70
2014,08,28,13,13,21.80
2014,08,28,13,14,21.90
2014,08,28,13,15,22.00
2014,08,28,13,16,22.20
2014,08,28,13,17,22.40
2014,08,28,13,18,22.60
2014,08,28,13,19,22.60
2014,08,28,13,20,22.50
2014,08,28,13,21,22.30
2014,08,28,13,22,22.10
2014,08,28,13,23,21.80
2014,08,28,13,24,21.60
2014,08,28,13,25,21.50
2014,08,28,13,26,21.40
2014,08,28,13,27,21.20
2014,08,28,13,28,21.10
2014,08,28,13,29,21.00
2014,08,28,13,30,20.90
2014,08,28,13,31,20.80
2014,08,28,13,32,20.80
2014,08,28,13,33,20.80
2014,08,28,13,34,20.70
2014,08,28,13,35,20.70
2014,08,28,13,36,20.70
2014,08,28,13,37,20.80
2014,08,28,13,38,20.80
2014,08,28,13,39,20.80
2014,08,28,13,40,20.80
2014,08,28,13,41,20.80
2014,08,28,13,42,20.80
2014,08,28,13,43,20.80
2014,08,28,13,44,20.90
2014,08,28,13,45,21.00
2014,08,28,13,46,21.00
2014,08,28,13,47,21.00
2014,08,28,13,48,21.00
2014,08,28,13,49,21.20
2014,08,28,13,50,21.30
2014,08,28,13,51,21.50
2014,08,28,13,52,21.70
2014,08,28,13,53,21.70
2014,08,28,13,54,21.80
2014,08,28,13,55,21.70
2014,08,28,13,56,21.50
2014,08,28,13,57,21.40
2014,08,28,13,58,21.40
2014,08,28,13,59,21.30
2014,08,28,14,00,21.30
2014,08,28,14,01,21.40
2014,08,28,14,02,21.40
2014,08,28,14,03,21.50
2014,08,28,14,04,21.40
2014,08,28,14,05,21.20
2014,08,28,14,06,21.00
2014,08,28,14,07,20.90
2014,08,28,14,08,20.80
2014,08,28,14,09,20.80
2014,08,28,14,10,20.80
2014,08,28,14,11,20.90
2014,08,28,14,12,21.10
2014,08,28,14,13,21.20
2014,08,28,14,14,21.20
2014,08,28,14,15,21.20
2014,08,28,14,16,21.20
2014,08,28,14,17,21.30
2014,08,28,14,18,21.30
2014,08,28,14,19,21.30
2014,08,28,14,20,21.30
2014,08,28,14,21,21.30
2014,08,28,14,22,21.30
2014,08,28,14,23,21.40
2014,08,28,14,24,21.40
2014,08,28,14,25,21.50
2014,08,28,14,26,21.40
2014,08,28,14,27,21.40
2014,08,28,14,28,21.50
2014,08,28,14,29,21.50
2014,08,28,14,30,21.40
2014,08,28,14,31,21.30
2014,08,28,14,32,21.30
2014,08,28,14,33,21.20
2014,08,28,14,34,21.10
2014,08,28,14,35,21.10
2014,08,28,14,36,21.00
2014,08,28,14,37,21.00
2014,08,28,14,38,21.10
2014,08,28,14,39,21.20
2014,08,28,14,40,21.30
2014,08,28,14,41,21.30
2014,08,28,14,42,21.30
2014,08,28,14,43,21.30
2014,08,28,14,44,21.30
2014,08,28,14,45,21.30
2014,08,28,14,46,21.20
2014,08,28,14,47,21.10
2014,08,28,14,48,21.10
2014,08,28,14,49,21.10
2014,08,28,14,50,21.10
2014,08,28,14,51,21.10
2014,08,28,14,52,21.20
2014,08,28,14,53,21.30
2014,08,28,14,54,21.50
2014,08,28,14,55,21.70
2014,08,28,14,56,21.90
2014,08,28,14,57,22.10
2014,08,28,14,58,22.20
2014,08,28,14,59,22.30
2014,08,28,15,00,22.40
2014,08,28,15,01,22.50
2014,08,28,15,02,22.50
2014,08,28,15,03,22.40
2014,08,28,15,04,22.40
2014,08,28,15,05,22.30
2014,08,28,15,06,22.30
2014,08,28,15,07,22.20
2014,08,28,15,08,22.10
2014,08,28,15,09,22.00
2014,08,28,15,10,22.00
2014,08,28,15,11,22.00
2014,08,28,15,12,21.90
2014,08,28,15,13,21.90
2014,08,28,15,14,21.90
2014,08,28,15,15,21.90
2014,08,28,15,16,21.90
2014,08,28,15,17,22.00
2014,08,28,15,18,22.10
2014,08,28,15,19,22.20
2014,08,28,15,20,22.30
2014,08,28,15,21,22.30
2014,08,28,15,22,22.30
2014,08,28,15,23,22.30
2014,08,28,15,24,22.40
2014,08,28,15,25,22.40
2014,08,28,15,26,22.30
2014,08,28,15,27,22.10
2014,08,28,15,28,22.10
2014,08,28,15,29,22.10
2014,08,28,15,30,22.10
2014,08,28,15,31,22.10
2014,08,28,15,32,22.10
2014,08,28,15,33,22.00
2014,08,28,15,34,21.80
2014,08,28,15,35,21.70
2014,08,28,15,36,21.60
2014,08,28,15,37,21.60
2014,08,28,15,38,21.60
2014,08,28,15,39,21.70
2014,08,28,15,40,21.80
2014,08,28,15,41,21.90
2014,08,28,15,42,22.00
2014,08,28,15,43,22.10
2014,08,28,15,44,22.20
2014,08,28,15,45,22.20
2014,08,28,15,46,22.30
2014,08,28,15,47,22.40
2014,08,28,15,48,22.40
2014,08,28,15,49,22.40
2014,08,28,15,50,22.40
2014,08,28,15,51,22.40
2014,08,28,15,52,22.40
2014,08,28,15,53,22.40
2014,08,28,15,54,22.30
2014,08,28,15,55,22.40
2014,08,28,15,56,22.40
2014,08,28,15,57,22.50
2014,08,28,15,58,22.50
2014,08,28,15,59,22.40
2014,08,28,16,00,22.30
2014,08,28,16,01,22.40
2014,08,28,16,02,22.40
2014,08,28,16,03,22.30
2014,08,28,16,04,22.30
2014,08,28,16,05,22.30
2014,08,28,16,06,22.30
2014,08,28,16,07,22.30
2014,08,28,16,08,22.40
2014,08,28,16,09,22.40
2014,08,28,16,10,22.40
2014,08,28,16,11,22.50
2014,08,28,16,12,22.50
2014,08,28,16,13,22.60
2014,08,28,16,14,22.60
2014,08,28,16,15,22.60
2014,08,28,16,16,22.60
2014,08,28,16,17,22.70
2014,08,28,16,18,22.70
2014,08,28,16,19,22.80
2014,08,28,16,20,22.80
2014,08,28,16,21,22.90
2014,08,28,16,22,22.90
2014,08,28,16,23,22.90
2014,08,28,16,24,22.70
2014,08,28,16,25,22.50
2014,08,28,16,26,22.40
2014,08,28,16,27,22.30
2014,08,28,16,28,22.30
2014,08,28,16,29,22.30
2014,08,28,16,30,22.30
2014,08,28,16,31,22.20
2014,08,28,16,32,22.20
2014,08,28,16,33,22.20
2014,08,28,16,34,22.30
2014,08,28,16,35,22.30
2014,08,28,16,36,22.30
2014,08,28,16,37,22.40
2014,08,28,16,38,22.40
2014,08,28,16,39,22.40
2014,08,28,16,40,22.40
2014,08,28,16,41,22.40
2014,08,28,16,42,22.40
2014,08,28,16,43,22.40
2014,08,28,16,44,22.40
2014,08,28,16,45,22.50
2014,08,28,16,46,22.50
2014,08,28,16,47,22.60
2014,08,28,16,48,22.60
2014,08,28,16,49,22.60
2014,08,28,16,50,22.70
2014,08,28,16,51,22.80
2014,08,28,16,52,22.80
2014,08,28,16,53,22.80
2014,08,28,16,54,22.80
2014,08,28,16,55,22.80
2014,08,28,16,56,22.80
2014,08,28,16,57,22.70
2014,08,28,16,58,22.60
2014,08,28,16,59,22.40
2014,08,28,17,00,22.40
2014,08,28,17,01,22.30
2014,08,28,17,02,22.30
2014,08,28,17,03,22.20
2014,08,28,17,04,22.20
2014,08,28,17,05,22.20
2014,08,28,17,06,22.20
2014,08,28,17,07,22.20
2014,08,28,17,08,22.20
2014,08,28,17,09,22.20
2014,08,28,17,10,22.20
2014,08,28,17,11,22.20
2014,08,28,17,12,22.30
2014,08,28,17,13,22.30
2014,08,28,17,14,22.30
2014,08,28,17,15,22.30
2014,08,28,17,16,22.40
2014,08,28,17,17,22.40
2014,08,28,17,18,22.40
2014,08,28,17,19,22.40
2014,08,28,17,20,22.30
2014,08,28,17,21,22.30
2014,08,28,17,22,22.20